Location: Newark
(43.0000°N, 1.6781°W)
Time: 11:32:24
(UTC+00:00)

Explorer 7 - Visible Passes

Search period start: 27 September 2022 00:00
Search period end: 07 October 2022 00:00
Orbit: 482 x 667 km, 50.3° (Epoch: 26 September)

Date Brightness Start Highest point End Pass type
(mag) Time Alt. Az. Time Alt. Az. Time Alt. Az.
27 Sep 8.5 19:36:11 10° WNW 19:39:49 28° SW 19:41:47 19° S visible
28 Sep 9.2 19:39:09 10° W 19:42:04 18° SW 19:44:34 11° S visible
29 Sep 9.6 19:42:52 10° WSW 19:44:15 11° SW 19:45:37 10° SSW visible
02 Oct 9.5 18:08:24 10° W 18:11:33 19° SW 18:14:34 10° S visible
03 Oct 9.9 18:11:56 10° WSW 18:13:43 12° SW 18:15:28 10° SSW visible
